Preview of NWS' New Version of Forecast
This preview is not operational and should not be used for support decisions.

Regional Weather Roundup (RWR)

Issued by National Weather Service (NWS)

                            
000
ASUS43 KLSX 221357
RWRMO 

WEATHER SUMMARY FOR MISSOURI
NATIONAL WEATHER SERVICE SPRINGFIELD MO
900 AM CDT MON JUL 22 2019

NOTE: "FAIR" INDICATES FEW OR NO CLOUDS BELOW 12,000 FEET WITH NO
       SIGNIFICANT WEATHER AND/OR OBSTRUCTIONS TO VISIBILITY.
       CURRENT SKY AND/OR WEATHER CONDITIONS ARE NOT AVAILABLE FOR
       CHILLICOTHE AND FARMINGTON.

MOZ001>031-035>038-043-044-053-054-221500-
...NORTHERN AND WESTERN MISSOURI...
  
CITY           SKY/WX    TMP DP  RH WIND       PRES   REMARKS
KANSAS CTY INT MOSUNNY   72  64  76 N14G20    30.15R                  
LEE'S SUMMIT   SUNNY     72  61  68 N14       30.13R                  
ST JOSEPH      SUNNY     73  65  75 N12       30.16R                  
CHILLICOTHE      N/A     73  64  73 VRB5      30.13R                  
     
$$
MOZ066>068-077>081-088>096-101>105-221500-
...SOUTHWEST MISSOURI...
  
CITY           SKY/WX    TMP DP  RH WIND       PRES   REMARKS
SPRINGFIELD    LGT RAIN  72  70  93 N10       30.02R                  
JOPLIN         CLOUDY    72  70  93 N18G26    30.05R                  
BRANSON        CLOUDY    70  70 100 N6        30.03R                  
               
$$
MOZ032>034-039>042-045>050-055>058-069>072-221500-
...CENTRAL MISSOURI...  
  
CITY           SKY/WX    TMP DP  RH WIND       PRES   REMARKS
COLUMBIA       NOT AVBL                                               
ROLLA          LGT RAIN  66  64  93 NE8       30.05R                  
SEDALIA        MOSUNNY   69  67  93 NE16G23   30.10R                  
WARRENSBURG    SUNNY     72  63  73 N8        30.10R                  
               
$$
MOZ051-052-059>065-221500-
...EAST CENTRAL MISSOURI...
  
CITY           SKY/WX    TMP DP  RH WIND       PRES   REMARKS
ST LOUIS INTL  CLOUDY    67  63  87 N8        30.02S                  
                   
$$
MOZ072>076-082>087-097>100-106>115-221500-
...SOUTH CENTRAL AND SOUTHEAST MISSOURI...
  
CITY           SKY/WX    TMP DP  RH WIND       PRES   REMARKS
CAPE GIRARDEAU NOT AVBL                                               
POPLAR BLUFF   CLOUDY    77  74  90 N6        29.93R                  
WEST PLAINS    CLOUDY    73  70  90 NW5       30.01S                  
                                       
$$